Left ArrowRight Arrow

33.98154, -81.23621

Hourly Observations for June 20, 2024

Temp ( °F °C ) Dew Point ( °F °C ) Humidity (%) Winds ( mph kmh ) Pressure ( in mb ) Visibility ( mi km ) Precip ( " mm )
12:56 am 00:56 Mostly Clear 75 23.9 64 17.8 69 69 E 6 9 30.25 1024 10 16 0.00 0.00
1:56 am 01:56 Mostly Clear 74 23.3 65 18.3 74 74 E 6 9 30.24 1024 10 16 0.00 0.00
2:56 am 02:56 Mostly Clear 74 23.3 66 18.9 76 76 E 5 7 30.24 1024 10 16 0.00 0.00
3:56 am 03:56 Clear 73 22.8 67 19.4 81 81 ENE 5 7 30.24 1024 10 16 0.00 0.00
4:56 am 04:56 Clear 73 22.8 67 19.4 81 81 NNE 5 7 30.25 1024 10 16 0.00 0.00
5:56 am 05:56 Mostly Clear 72 22.2 67 19.4 84 84 NNE 5 7 30.26 1025 10 16 0.00 0.00
6:56 am 06:56 Mostly Sunny 72 22.2 67 19.4 84 84 NNE 5 7 30.28 1025 10 16 0.00 0.00
7:56 am 07:56 Sunny 75 23.9 66 18.9 74 74 NE 7 11 30.29 1026 10 16 0.00 0.00
8:56 am 08:56 Sunny 78 25.6 66 18.9 67 67 ENE 9 15 30.30 1026 10 16 0.00 0.00
9:56 am 09:56 Partly Cloudy 80 26.7 66 18.9 62 62 ENE 7 11 30.31 1026 10 16 0.00 0.00
10:56 am 10:56 Partly Cloudy 83 28.3 65 18.3 55 55 ENE 6 9 30.31 1026 10 16 0.00 0.00
11:56 am 11:56 Partly Cloudy 87 30.6 63 17.2 45 45 E 16 26 30.30 1026 10 16 0.00 0.00
12:56 pm 12:56 Mostly Sunny 88 31.1 62 16.7 42 42 NE 10 17 30.29 1026 10 16 0.00 0.00
1:56 pm 13:56 Partly Cloudy 90 32.2 61 16.1 38 38 VRB 7 11 30.27 1025 10 16 0.00 0.00
2:56 pm 14:56 Mostly Sunny 90 32.2 61 16.1 38 38 E 12 19 30.24 1024 10 16 0.00 0.00
3:56 pm 15:56 Mostly Sunny 92 33.3 60 15.6 35 35 ENE 9 15 30.22 1024 10 16 0.00 0.00
4:56 pm 16:56 Partly Cloudy 93 33.9 59 15 32 32 E 9 15 30.21 1023 10 16 0.00 0.00
5:56 pm 17:56 Partly Cloudy 91 32.8 58 14.4 33 33 E 13 20 30.19 1022 10 16 0.00 0.00
6:56 pm 18:56 Mostly Sunny 90 32.2 59 15 35 35 ESE 13 20 30.19 1022 10 16 0.00 0.00
7:56 pm 19:56 Mostly Sunny 87 30.6 59 15 39 39 E 8 13 30.19 1023 10 16 0.00 0.00
8:56 pm 20:56 Mostly Clear 83 28.3 59 15 44 44 E 5 7 30.20 1023 10 16 0.00 0.00
9:56 pm 21:56 Mostly Clear 81 27.2 60 15.6 49 49 E 3 6 30.21 1023 10 16 0.00 0.00
10:56 pm 22:56 Clear 77 25 62 16.7 60 60 SSE 7 11 30.22 1023 10 16 0.00 0.00
11:56 pm 23:56 Clear 76 24.4 64 17.8 67 67 E 5 7 30.23 1024 10 16 0.00 0.00

Powered by Vaisala Xweather